EW6224 Weather Reports


time (UTC)temp
F
wind
direction
speed
knots
gust
knots
rain 1hr
in
rain 24hr
in
rain mn
in
humidity
%
barometer
mb
20260510184554 63 342 5.2 11.3 0.00 0.01 0.01 46 1017.7
20260510183054 63 5 3.5 7.8 0.00 0.01 0.01 47 1017.7
20260510181551 64 263 0.9 7.8 0.01 0.01 0.01 45 1017.6
20260510180105 63 242 0.0 5.2 0.01 0.01 0.01 52 1017.5
20260510174603 63 31 3.5 6.1 0.01 0.01 0.01 49 1017.1
20260510173052 63 23 0.9 10.4 0.01 0.01 0.01 58 1017.3
20260510171604 63 285 0.9 7.0 0.00 0.00 0.00 53 1017.3
20260510170053 62 19 2.6 7.8 0.00 0.00 0.00 51 1017.3
20260510164605 62 22 1.7 7.8 0.00 0.00 0.00 52 1017.5
20260510163137 62 0 1.7 5.2 0.00 0.00 0.00 49 1017.6
20260510161552 61 17 1.7 7.8 0.00 0.00 0.00 51 1017.5
20260510160056 61 9 2.6 9.6 0.00 0.00 0.00 56 1017.4
20260510154555 60 5 1.7 7.0 0.00 0.00 0.00 52 1017.1
20260510153102 61 21 1.7 4.3 0.00 0.00 0.00 57 1017.0
20260510151625 60 38 0.9 3.5 0.00 0.00 0.00 54 1016.8
20260510150100 60 32 0.9 6.1 0.00 0.00 0.00 55 1016.7
20260510144614 59 0 0.9 7.0 0.00 0.00 0.00 56 1016.6
20260510143105 58 58 2.6 7.0 0.00 0.00 0.00 59 1016.2
20260510141558 57 38 1.7 7.0 0.00 0.00 0.00 58 1016.0
20260510140053 57 53 1.7 5.2 0.00 0.00 0.00 62 1016.0
20260510134558 56 103 1.7 7.0 0.00 0.00 0.00 63 1015.8
20260510133058 54 0 1.7 4.3 0.00 0.00 0.00 64 1015.9
20260510131559 54 15 1.7 4.3 0.00 0.00 0.00 66 1015.6
20260510130054 53 17 1.7 4.3 0.00 0.00 0.00 65 1015.5
20260510124559 53 29 0.9 3.5 0.00 0.00 0.00 66 1015.5
20260510123052 53 11 0.9 2.6 0.00 0.00 0.00 66 1015.1
20260510121551 52 0 0.0 1.7 0.00 0.00 0.00 72 1014.9
20260510120051 52 0 0.0 0.9 0.00 0.00 0.00 72 1014.7
20260510114552 52 0 0.0 1.7 0.00 0.01 0.00 70 1014.4
20260510113047 51 0 0.0 0.9 0.00 0.01 0.00 69 1014.2
20260510111551 52 11 0.0 1.7 0.00 0.01 0.00 70 1013.8
20260510110052 52 360 0.0 1.7 0.00 0.01 0.00 68 1013.4
20260510104553 52 11 0.9 2.6 0.00 0.01 0.00 73 1013.4
20260510103053 53 0 0.9 3.5 0.00 0.01 0.00 71 1013.1
20260510101556 53 352 0.9 3.5 0.00 0.01 0.00 71 1012.8
20260510100109 53 11 0.0 0.9 0.00 0.01 0.00 73 1012.4
20260510094605 54 334 0.9 4.3 0.00 0.01 0.00 72 1012.2
20260510093058 54 352 1.7 7.0 0.00 0.01 0.00 75 1011.9
20260510091557 55 360 3.5 7.0 0.00 0.01 0.00 76 1011.6
20260510090058 55 5 4.3 8.7 0.00 0.01 0.00 75 1011.3
20260510084611 56 350 1.7 4.3 0.00 0.01 0.00 76 1011.1
20260510083053 56 346 1.7 7.8 0.00 0.01 0.00 74 1010.8
20260510081555 57 348 2.6 7.0 0.00 0.01 0.00 73 1010.8
20260510080048 57 338 3.5 8.7 0.00 0.01 0.00 74 1010.5
20260510074552 58 349 0.9 4.3 0.00 0.01 0.00 78 1010.2
20260510073104 59 319 0.0 1.7 0.00 0.01 0.00 76 1010.3
20260510071553 60 0 0.0 4.3 0.00 0.01 0.00 73 1010.1
20260510070055 60 0 0.9 3.5 0.00 0.01 0.00 72 1010.1
20260510064553 61 0 0.0 3.5 0.00 0.01 0.00 72 1010.2
20260510063057 61 0 0.0 6.1 0.00 0.01 0.00 72 1010.1
20260510061557 61 264 0.0 7.0 0.00 0.01 0.00 73 1010.1
20260510060055 60 190 0.9 8.7 0.00 0.01 0.00 77 1010.1
20260510054551 58 0 0.0 1.7 0.00 0.01 0.00 77 1009.9
20260510053051 58 0 0.0 1.7 0.00 0.01 0.00 76 1009.8
20260510051553 60 0 0.0 0.9 0.00 0.01 0.00 75 1009.7
20260510050052 61 0 0.0 0.9 0.00 0.01 0.00 72 1009.8
20260510044556 61 339 0.0 2.6 0.00 0.01 0.00 71 1009.8
20260510043104 61 123 0.0 1.7 0.00 0.01 0.00 72 1009.3
20260510041554 61 0 0.0 3.5 0.00 0.01 0.00 72 1009.4
20260510040100 61 171 0.0 2.6 0.00 0.01 0.00 72 1009.2
20260510034552 61 0 0.0 2.6 0.00 0.01 0.01 73 1009.2
20260510033115 60 0 0.0 1.7 0.00 0.01 0.01 73 1009.0
20260510031558 61 0 0.0 0.9 0.00 0.01 0.01 72 1009.0
20260510030059 61 0 0.0 2.6 0.00 0.01 0.01 73 1009.1
20260510024552 61 151 0.0 1.7 0.00 0.01 0.01 72 1009.0
20260510023049 62 0 0.0 2.6 0.00 0.01 0.01 71 1008.9
20260510021554 62 0 0.0 0.9 0.00 0.01 0.01 70 1008.7
20260510020056 63 0 0.0 0.9 0.00 0.01 0.01 68 1008.5
20260510014555 64 0 0.0 0.9 0.00 0.01 0.01 66 1008.1
20260510013050 65 0 0.0 1.7 0.00 0.01 0.01 65 1007.8
20260510011600 65 0 0.0 4.3 0.00 0.01 0.01 62 1007.7
20260510010104 66 0 0.0 4.3 0.00 0.01 0.01 62 1007.4
20260510004552 66 0 0.0 5.2 0.00 0.01 0.01 61 1007.4
20260510003053 67 0 0.0 3.5 0.00 0.01 0.01 58 1007.3
20260510001553 68 352 0.0 8.7 0.00 0.01 0.01 56 1007.1
20260510000106 68 0 1.7 10.4 0.00 0.01 0.01 56 1007.0
20260509234559 68 0 0.0 8.7 0.00 0.01 0.01 57 1006.9
20260509233055 68 69 0.9 10.4 0.00 0.01 0.01 58 1006.7
20260509231550 69 232 2.6 9.6 0.00 0.01 0.01 57 1006.8
20260509230053 70 264 0.9 12.2 0.00 0.01 0.01 56 1006.7
20260509224558 71 267 1.7 5.2 0.00 0.01 0.01 56 1006.5
20260509223100 71 207 1.7 6.1 0.00 0.01 0.01 53 1006.4
20260509221559 71 258 1.7 11.3 0.00 0.01 0.01 53 1006.4
20260509220053 72 313 1.7 8.7 0.00 0.01 0.01 54 1006.3
20260509214552 71 196 0.9 9.6 0.00 0.01 0.01 54 1006.5
20260509213058 72 232 1.7 8.7 0.00 0.01 0.01 54 1006.5
20260509211554 72 238 0.9 13.0 0.00 0.01 0.01 58 1006.6
20260509210107 71 155 1.7 9.6 0.00 0.01 0.01 55 1006.7
20260509204601 71 105 0.9 13.9 0.00 0.01 0.01 57 1006.7
20260509203059 72 83 1.7 8.7 0.00 0.01 0.01 61 1006.9
20260509201558 72 113 1.7 7.8 0.00 0.01 0.01 58 1007.3
20260509200105 70 219 2.6 7.8 0.00 0.01 0.01 58 1007.4
20260509194554 71 0 1.7 7.8 0.00 0.01 0.01 64 1007.5
20260509193057 70 134 1.7 10.4 0.00 0.01 0.01 61 1007.5
20260509191549 70 195 2.6 13.9 0.00 0.01 0.01 57 1007.7